This demonstration page uses our WeatherBlox Daily Observations layout. Learn more.

Hourly Observations for February 13, 2019

Temp ( °F °C ) Dew Point ( °F °C ) Humidity (%) Winds ( mph kmh ) Pressure ( in mb ) Visibility ( mi km ) Precip ( " mm )
12:54 am 00:54 Clear 17 -8.3 11 -11.7 77 77 E 7 11 30.22 1024 10 16.0934 0 0
1:54 am 01:54 Clear 15 -9.4 9 -12.8 77 77 E 5 7 30.19 1022 10 16.0934 0 0
2:54 am 02:54 Clear 15 -9.4 9 -12.8 77 77 ESE 3 6 30.18 1022 10 16.0934 0 0
3:54 am 03:54 Clear 16 -8.9 8 -13.3 71 71 E 5 7 30.16 1022 10 16.0934 0 0
4:54 am 04:54 Clear 15 -9.4 7 -13.9 70 70 E 5 7 30.15 1021 10 16.0934 0 0
5:54 am 05:54 Clear 15 -9.4 7 -13.9 70 70 ESE 5 7 30.11 1020 10 16.0934 0 0
6:54 am 06:54 Clear 16 -8.9 7 -13.9 67 67 ESE 5 7 30.07 1018 10 16.0934 0 0
7:54 am 07:54 Sunny 17 -8.3 9 -12.8 70 70 SE 6 9 30.04 1017 10 16.0934 0 0
8:54 am 08:54 Sunny 20 -6.7 12 -11.1 71 71 SE 8 13 30.02 1017 10 16.0934 0 0
9:54 am 09:54 Sunny 23 -5 14 -10 68 68 ESE 6 9 29.99 1016 10 16.0934 0 0
10:54 am 10:54 Sunny 30 -1.1 20 -6.7 66 66 SE 9 15 29.94 1014 10 16.0934 0 0
11:54 am 11:54 Sunny 35 1.7 23 -5 61 61 SSE 10 17 29.91 1013 10 16.0934 0 0
12:54 pm 12:54 Sunny 38 3.3 26 -3.3 62 62 SSE 10 17 29.84 1010 10 16.0934 0 0
1:54 pm 13:54 Sunny 41 5 29 -1.7 62 62 SSE 15 24 29.79 1009 10 16.0934 0 0
2:54 pm 14:54 Sunny 42 5.6 30 -1.1 62 62 SE 10 17 29.75 1008 10 16.0934 0 0
3:54 pm 15:54 Sunny 42 5.6 31 -0.6 65 65 SSE 10 17 29.72 1006 10 16.0934 0 0
4:54 pm 16:54 Sunny 41 5 31 -0.6 67 67 ESE 8 13 29.7 1006 10 16.0934 0 0
5:54 pm 17:54 Sunny 36 2.2 29 -1.7 76 76 ESE 8 13 29.67 1005 10 16.0934 0 0
6:54 pm 18:54 Clear 33 0.6 28 -2.2 82 82 SE 7 11 29.67 1005 10 16.0934 0 0
7:54 pm 19:54 Clear 33 0.6 29 -1.7 85 85 SSE 3 6 29.66 1004 9 14.48406 0 0
8:54 pm 20:54 Clear 34 1.1 30 -1.1 85 85 SSE 5 7 29.63 1003 10 16.0934 0 0
9:54 pm 21:54 Clear 35 1.7 30 -1.1 82 82 SE 3 6 29.59 1002 10 16.0934 0 0
10:54 pm 22:54 Clear 31 -0.6 29 -1.7 92 92 Calm 29.57 1001 10 16.0934 0 0
11:54 pm 23:54 Clear 31 -0.6 29 -1.7 92 92 Calm 29.54 1001 9 14.48406 0 0

Powered by AerisWeather